When you browse on this site, cookies collect data to enhance your experience and personalize the content and advertising you see.
Visit our Privacy Policy to learn more. By continuing to use the site, you agree to this use of cookies and data.
  • In United Kingdom
  • List of Countries
  • For 7 days
  • Water Temperature
  • Satellite Maps
  • Weather Map
  • Weather Widgets
  • user-avatar
    Login

    Hourly Weather Abernethy

    Today, 25 April, Thursday

    Time Temperature Precipitation Wind Pressure Humidity
    00:00 +7°C° 0.1 mm 4 mps 731 mmHg 96%
    01:00 +8°C° 0.3 mm 3 mps 731 mmHg 96%
    02:00 +8°C° 0.3 mm 2 mps 732 mmHg 97%
    03:00 +8°C° 0.3 mm 2 mps 732 mmHg 97%
    04:00 +8°C° 0.3 mm 2 mps 732 mmHg 96%
    05:00 +8°C° 0.3 mm 2 mps 732 mmHg 95%
    06:00 +8°C° 0.3 mm 2 mps 733 mmHg 94%
    07:00 +9°C° 0 mm 2 mps 733 mmHg 88%
    08:00 +10°C° 0 mm 3 mps 734 mmHg 81%
    09:00 +11°C° 0 mm 3 mps 734 mmHg 75%
    10:00 +12°C° 0 mm 4 mps 734 mmHg 71%
    11:00 +12°C° 0 mm 5 mps 734 mmHg 68%
    12:00 +13°C° 0 mm 6 mps 734 mmHg 64%
    13:00 +11°C° 0.4 mm 6 mps 734 mmHg 72%
    14:00 +10°C° 0.4 mm 6 mps 734 mmHg 79%
    15:00 +8°C° 0.4 mm 7 mps 733 mmHg 87%
    16:00 +8°C° 1.7 mm 6 mps 733 mmHg 90%
    17:00 +7°C° 1.7 mm 6 mps 733 mmHg 93%
    18:00 +5°C° 1.7 mm 6 mps 733 mmHg 96%
    19:00 +5°C° 0.5 mm 6 mps 733 mmHg 95%
    20:00 +7°C° 0.5 mm 6 mps 733 mmHg 94%
    21:00 +7°C° 0.5 mm 5 mps 734 mmHg 92%
    22:00 +7°C° 0.4 mm 4 mps 734 mmHg 92%
    23:00 +8°C° 0.4 mm 3 mps 735 mmHg 93%

    Tomorrow, 26 April, Friday

    Time Temperature Precipitation Wind Pressure Humidity
    00:00 +8°C° 0.4 mm 3 mps 735 mmHg 93%
    01:00 +7°C° 0 mm 2 mps 735 mmHg 93%
    02:00 +7°C° 0 mm 2 mps 736 mmHg 93%
    03:00 +6°C° 0 mm 2 mps 736 mmHg 93%
    04:00 +6°C° 0 mm 2 mps 736 mmHg 93%
    05:00 +5°C° 0 mm 3 mps 737 mmHg 93%
    06:00 +5°C° 0 mm 3 mps 737 mmHg 93%
    07:00 +7°C° 0 mm 3 mps 737 mmHg 88%
    08:00 +7°C° 0 mm 4 mps 737 mmHg 83%
    09:00 +8°C° 0 mm 5 mps 737 mmHg 79%
    10:00 +10°C° 0.1 mm 4 mps 737 mmHg 78%
    11:00 +10°C° 0.1 mm 4 mps 737 mmHg 78%
    12:00 +10°C° 0.1 mm 4 mps 738 mmHg 78%
    13:00 +11°C° 0.3 mm 4 mps 737 mmHg 75%
    14:00 +12°C° 0.3 mm 4 mps 737 mmHg 73%
    15:00 +12°C° 0.3 mm 4 mps 737 mmHg 71%
    16:00 +12°C° 0.3 mm 4 mps 737 mmHg 75%
    17:00 +11°C° 0.3 mm 4 mps 737 mmHg 79%
    18:00 +11°C° 0.3 mm 4 mps 737 mmHg 83%
    19:00 +10°C° 0.4 mm 3 mps 737 mmHg 87%
    20:00 +9°C° 0.4 mm 3 mps 737 mmHg 91%
    21:00 +8°C° 0.4 mm 3 mps 738 mmHg 94%
    22:00 +8°C° 0.3 mm 3 mps 737 mmHg 94%
    23:00 +8°C° 0.3 mm 2 mps 737 mmHg 93%

    Day after tomorrow, 27 April, Saturday

    Time Temperature Precipitation Wind Pressure Humidity
    00:00 +7°C° 0.3 mm 2 mps 737 mmHg 92%
    01:00 +7°C° 0.1 mm 2 mps 737 mmHg 93%
    02:00 +7°C° 0.1 mm 1 mps 738 mmHg 94%
    03:00 +7°C° 0.1 mm 1 mps 738 mmHg 95%
    04:00 +7°C° 0 mm 1 mps 738 mmHg 94%
    05:00 +7°C° 0 mm 1 mps 739 mmHg 93%
    06:00 +7°C° 0 mm 1 mps 740 mmHg 93%
    07:00 +8°C° 0 mm 1 mps 741 mmHg 87%
    08:00 +9°C° 0 mm 2 mps 742 mmHg 81%
    09:00 +10°C° 0 mm 2 mps 742 mmHg 75%
    10:00 +11°C° 0.1 mm 3 mps 743 mmHg 73%
    11:00 +11°C° 0.1 mm 4 mps 744 mmHg 71%
    12:00 +12°C° 0.1 mm 5 mps 745 mmHg 69%
    13:00 +10°C° 0.1 mm 5 mps 746 mmHg 69%
    14:00 +10°C° 0.1 mm 5 mps 747 mmHg 69%
    15:00 +10°C° 0.1 mm 5 mps 747 mmHg 68%
    16:00 +10°C° 0 mm 5 mps 748 mmHg 67%
    17:00 +9°C° 0 mm 5 mps 749 mmHg 67%
    18:00 +10°C° 0 mm 4 mps 750 mmHg 66%
    19:00 +7°C° 0 mm 4 mps 751 mmHg 68%
    20:00 +6°C° 0 mm 4 mps 751 mmHg 71%
    21:00 +4°C° 0 mm 3 mps 752 mmHg 73%
    22:00 +4°C° 0 mm 3 mps 752 mmHg 75%
    23:00 +3°C° 0 mm 3 mps 753 mmHg 77%

    28 April, Sunday

    Time Temperature Precipitation Wind Pressure Humidity
    00:00 +2°C° 0 mm 3 mps 753 mmHg 78%
    01:00 +2°C° 0 mm 3 mps 753 mmHg 79%
    02:00 +2°C° 0 mm 3 mps 754 mmHg 81%
    03:00 +2°C° 0 mm 2 mps 754 mmHg 82%
    04:00 +3°C° 0 mm 2 mps 754 mmHg 81%
    05:00 +3°C° 0 mm 2 mps 754 mmHg 81%
    06:00 +4°C° 0 mm 2 mps 754 mmHg 81%
    07:00 +7°C° 0 mm 1 mps 754 mmHg 74%
    08:00 +8°C° 0 mm 1 mps 755 mmHg 68%
    09:00 +10°C° 0 mm 1 mps 755 mmHg 61%
    10:00 +12°C° 0 mm 1 mps 755 mmHg 58%
    11:00 +13°C° 0 mm 1 mps 755 mmHg 54%
    12:00 +14°C° 0 mm 1 mps 755 mmHg 51%
    13:00 +14°C° 0 mm 2 mps 754 mmHg 53%
    14:00 +13°C° 0 mm 3 mps 754 mmHg 56%
    15:00 +13°C° 0 mm 4 mps 754 mmHg 58%
    16:00 +12°C° 0 mm 4 mps 754 mmHg 61%
    17:00 +11°C° 0 mm 3 mps 754 mmHg 64%
    18:00 +10°C° 0 mm 3 mps 754 mmHg 67%
    19:00 +9°C° 0 mm 3 mps 754 mmHg 72%
    20:00 +8°C° 0 mm 3 mps 754 mmHg 76%
    21:00 +7°C° 0 mm 2 mps 754 mmHg 81%
    22:00 +7°C° 0 mm 3 mps 754 mmHg 84%
    23:00 +7°C° 0 mm 3 mps 754 mmHg 88%

    29 April, Monday

    Time Temperature Precipitation Wind Pressure Humidity
    00:00 +7°C° 0 mm 3 mps 754 mmHg 92%
    01:00 +7°C° 0 mm 3 mps 754 mmHg 93%
    02:00 +7°C° 0 mm 3 mps 754 mmHg 94%
    03:00 +7°C° 0 mm 3 mps 754 mmHg 95%
    04:00 +7°C° 0 mm 3 mps 754 mmHg 94%
    05:00 +7°C° 0 mm 3 mps 754 mmHg 93%
    06:00 +7°C° 0 mm 3 mps 754 mmHg 92%
    07:00 +8°C° 0 mm 3 mps 755 mmHg 90%
    08:00 +7°C° 0 mm 4 mps 755 mmHg 88%
    09:00 +8°C° 0 mm 4 mps 755 mmHg 86%
    10:00 +8°C° 0 mm 4 mps 755 mmHg 84%
    11:00 +9°C° 0 mm 5 mps 755 mmHg 83%
    12:00 +9°C° 0 mm 5 mps 755 mmHg 81%
    13:00 +10°C° 0 mm 5 mps 755 mmHg 78%
    14:00 +10°C° 0 mm 5 mps 755 mmHg 76%
    15:00 +12°C° 0 mm 5 mps 755 mmHg 73%
    16:00 +10°C° 0 mm 5 mps 755 mmHg 76%
    17:00 +10°C° 0 mm 5 mps 755 mmHg 78%
    18:00 +9°C° 0 mm 6 mps 755 mmHg 81%
    19:00 +8°C° 0 mm 5 mps 755 mmHg 86%
    20:00 +7°C° 0 mm 4 mps 756 mmHg 91%
    21:00 +5°C° 0 mm 3 mps 756 mmHg 95%
    22:00 +5°C° 0 mm 3 mps 756 mmHg 96%
    23:00 +6°C° 0 mm 2 mps 756 mmHg 96%

    30 April, Tuesday

    Time Temperature Precipitation Wind Pressure Humidity
    00:00 +6°C° 0 mm 2 mps 756 mmHg 96%
    01:00 +6°C° 0 mm 2 mps 756 mmHg 96%
    02:00 +6°C° 0 mm 2 mps 756 mmHg 95%
    03:00 +6°C° 0 mm 2 mps 756 mmHg 95%
    04:00 +6°C° 0 mm 2 mps 756 mmHg 94%
    05:00 +6°C° 0 mm 2 mps 756 mmHg 93%
    06:00 +6°C° 0 mm 2 mps 756 mmHg 92%
    07:00 +8°C° 0 mm 2 mps 757 mmHg 82%
    08:00 +9°C° 0 mm 3 mps 757 mmHg 72%
    09:00 +11°C° 0 mm 3 mps 757 mmHg 63%
    10:00 +12°C° 0 mm 4 mps 757 mmHg 60%
    11:00 +12°C° 0 mm 4 mps 757 mmHg 58%
    12:00 +13°C° 0 mm 4 mps 756 mmHg 56%
    13:00 +13°C° 0 mm 4 mps 756 mmHg 57%
    14:00 +13°C° 0 mm 4 mps 756 mmHg 58%
    15:00 +13°C° 0 mm 4 mps 756 mmHg 60%
    16:00 +12°C° 0 mm 4 mps 756 mmHg 62%
    17:00 +12°C° 0 mm 4 mps 756 mmHg 65%
    18:00 +11°C° 0 mm 3 mps 756 mmHg 68%
    19:00 +10°C° 0 mm 3 mps 756 mmHg 75%
    20:00 +8°C° 0 mm 2 mps 756 mmHg 82%
    21:00 +7°C° 0 mm 2 mps 756 mmHg 89%
    22:00 +7°C° 0 mm 2 mps 756 mmHg 91%
    23:00 +7°C° 0 mm 2 mps 756 mmHg 92%
    Show more